[[{"header":{"parameterUnit":"m.s-1","parameterCategory":1,"la1":30.2991,"la2":30.254,"lo1":-89.0895,"lo2":-89.0444,"dy":0.0017,"dx":0.0017,"nx":28,"ny":28,"refTime":"2024-08-04T03:00:00:Z","depth":0,"parameterNumber":2,"parameterNumberName":"U-component_of_WINDS"},"data":[0,0,0,0,0,0,0,0,0,0,0,0,0,0,0,0,0,0,0,0,0,0,0,0,0,0,0,0,0,0,0,0,0,0,0,0,0,0,0,0,0,0,0,0,0,0,0,0,0,0,0,0,0,0,0,0,0,0,0.4017,0.4019,0,0.4199,0.4201,0.4203,0.4283,0.4283,0.4282,0.4282,0.447,0.4475,0.448,0,0,0,0,0,0,0,0,0,0,0,0,0,0.3738,0.3742,0.4017,0.4019,0.4021,0.4198,0.4201,0.4203,0.4283,0.4283,0.4282,0.4282,0.4468,0.4474,0.448,0,0,0,0,0,0,0,0,0,0,0,0,0,0.3883,0.3744,0.4016,0.4082,0.409,0.4198,0.4201,0.4204,0.4283,0.4283,0.4282,0.4282,0.4466,0.4473,0.4481,0.4537,0,0,0.4505,0.4509,0,0,0,0,0,0,0,0,0.3875,0.3893,0.407,0.4078,0.4087,0.4218,0.4171,0.4316,0.4283,0.421,0.4282,0.4282,0.4386,0.44,0.4436,0.4546,0.4554,0.4506,0.4511,0.4514,0.4516,0,0,0,0,0,0,0,0.3864,0.3886,0.4089,0.4073,0.4083,0.4103,0.4123,0.4199,0.4298,0.4216,0.4222,0.4243,0.4391,0.4428,0.4441,0.4557,0.4506,0.4513,0.4517,0.452,0.472,0.4721,0,0,0,0,0,0,0.3844,0.3877,0.4083,0.4094,0.3977,0.4108,0.4131,0.4176,0.4297,0.4315,0.4243,0.4246,0.4415,0.4431,0.4447,0.452,0.4514,0.4521,0.4526,0.472,0.472,0.4721,0,0,0,0,0,0,0.3837,0.3861,0.4076,0.3987,0.4016,0.4113,0.4164,0.418,0.4217,0.4318,0.4336,0.4263,0.4415,0.4436,0.4514,0.4528,0.4525,0.4532,0.4719,0.472,0.4721,0.4666,0,0,0,0,0,0,0.3829,0.3858,0.3881,0.3987,0.402,0.4139,0.4165,0.4184,0.423,0.4236,0.4341,0.4358,0.4416,0.4502,0.4522,0.4539,0.4538,0.4718,0.4719,0.472,0.4667,0.4665,0.4664,0,0,0,0,0,0.3819,0.3859,0.3882,0.3906,0.4051,0.414,0.4159,0.4225,0.4231,0.4255,0.4319,0.4355,0.4523,0.4509,0.4532,0.4552,0.4718,0.4719,0.472,0.4668,0.4666,0.4664,0,0,0,0,0,0,0.3754,0.3875,0.3901,0.3977,0.4047,0.4153,0.4185,0.422,0.4291,0.4293,0.4372,0.4395,0.4465,0.4516,0.4499,0.4611,0.4623,0.4629,0.4576,0.4574,0.4572,0.4559,0.4545,0,0,0,0,0,0.3748,0.381,0.3912,0.397,0.4003,0.4088,0.4129,0.4173,0.425,0.428,0.435,0.4422,0.4491,0.4535,0.4605,0.4674,0.4698,0.4699,0.4697,0.4695,0.4699,0.4738,0.474,0.4726,0.4726,0.4725,0,0,0.3738,0.3811,0.3846,0.3958,0.4018,0.408,0.4113,0.4178,0.4224,0.429,0.4367,0.442,0.4506,0.458,0.4616,0.4624,0.4708,0.4697,0.4694,0.47,0.474,0.4741,0.4742,0.4726,0.4726,0.4726,0,0,0.375,0.3812,0.3866,0.3925,0.4014,0.4069,0.4082,0.4182,0.4219,0.4298,0.4348,0.4404,0.4522,0.458,0.4626,0.4656,0.4692,0.4677,0.4667,0.4704,0.4705,0.4706,0.4717,0.4719,0.4681,0.468,0.468,0,0.3726,0.3822,0.389,0.3951,0.3999,0.4059,0.4114,0.4168,0.4275,0.4306,0.4314,0.4461,0.4524,0.4611,0.4617,0.4652,0.4669,0.4666,0.4699,0.4701,0.4704,0.4714,0.4718,0.4678,0.4678,0.4679,0.4679,0,0.3787,0.3852,0.3885,0.3986,0.4037,0.4095,0.417,0.4214,0.4253,0.4307,0.4384,0.4461,0.4545,0.4569,0.4608,0.4661,0.4663,0.4684,0.4698,0.4701,0.4713,0.4717,0.4674,0.4675,0.4676,0.4677,0,0,0.3767,0.3902,0.3913,0.3958,0.406,0.4112,0.4171,0.4253,0.4288,0.4359,0.4411,0.4507,0.4526,0.4577,0.4623,0.4655,0.4673,0.4672,0.4675,0.4669,0.4734,0.4718,0.4722,0.4696,0.4698,0.4698,0.4727,0,0.3793,0.3902,0.3963,0.4047,0.4107,0.4164,0.4216,0.4283,0.4335,0.4393,0.445,0.4516,0.4537,0.4568,0.4602,0.4664,0.4687,0.4662,0.4745,0.4747,0.4722,0.4728,0.4713,0.4736,0.4732,0.4733,0.4733,0,0.3839,0.3907,0.3997,0.4089,0.4117,0.4162,0.4241,0.4296,0.4373,0.4408,0.4463,0.4508,0.4572,0.4579,0.4667,0.4649,0.4686,0.4721,0.4723,0.4734,0.4741,0.4739,0.4745,0.4749,0.4741,0.4741,0.474,0,0.3814,0.3928,0.3996,0.4034,0.4144,0.4174,0.4221,0.4297,0.4342,0.4411,0.444,0.4515,0.4556,0.4613,0.4676,0.4676,0.4758,0.4771,0.4788,0.4786,0.4804,0.4802,0.4816,0.4826,0.4826,0.4826,0.4826,0,0.3837,0.3889,0.3986,0.4028,0.4088,0.4157,0.4214,0.4266,0.4332,0.4385,0.4438,0.4486,0.4567,0.4624,0.4674,0.4739,0.4757,0.4787,0.4799,0.4782,0.4778,0.4808,0.4808,0.4827,0.4827,0.4827,0.4827,0,0.382,0.3887,0.3965,0.4061,0.4087,0.4126,0.4209,0.4251,0.4304,0.4369,0.4388,0.4471,0.4541,0.461,0.4704,0.4738,0.4802,0.4819,0.4776,0.4783,0.4796,0.4794,0.483,0.4838,0.4842,0.4842,0.4842,0,0.383,0.3872,0.3972,0.401,0.4056,0.4118,0.4163,0.4232,0.4276,0.4365,0.4396,0.447,0.4533,0.4642,0.471,0.4782,0.4801,0.4809,0.4813,0.4793,0.4801,0.4798,0.4802,0.4807,0.4807,0.4806,0.4806,0,0.3842,0.3872,0.3935,0.4009,0.4061,0.4123,0.4187,0.4215,0.4296,0.4343,0.4415,0.4464,0.4559,0.4631,0.471,0.4758,0.4795,0.4804,0.4812,0.4795,0.4768,0.4783,0.4771,0.4803,0.4804,0.4804,0.4804,0.4804,0.3839,0.3878,0.3954,0.4021,0.4076,0.4134,0.4177,0.4235,0.4296,0.4379,0.4415,0.4487,0.4561,0.4671,0.4718,0.4775,0.4784,0.4795,0.4798,0.48,0.4796,0.4758,0.4789,0.4789,0.479,0.479,0.479,0,0.3853,0.3904,0.3965,0.4052,0.4105,0.4134,0.4205,0.4247,0.431,0.4376,0.4436,0.4517,0.4587,0.4659,0.4733,0.4764,0.4782,0.4781,0.478,0.479,0.4784,0.477,0.4764,0.4764,0.4764,0.4764,0.4764,0.4764,0.3866,0.3933,0.3972,0.4065,0.4116,0.4187,0.4225,0.4278,0.433,0.4419,0.4477,0.4523,0.4591,0.4669,0.4734,0.4753,0.4778,0.4771,0.4795,0.4789,0.479,0.4792,0.4779,0.4776,0.4776,0.4797,0.4797,0.4797]},{"header":{"parameterUnit":"m.s-1","parameterCategory":1,"la1":30.2991,"la2":30.254,"lo1":-89.0895,"lo2":-89.0444,"dy":0.0017,"dx":0.0017,"nx":28,"ny":28,"refTime":"2024-08-04T03:00:00:Z","depth":0,"parameterNumber":3,"parameterNumberName":"V-component_of_WINDS"},"data":[0,0,0,0,0,0,0,0,0,0,0,0,0,0,0,0,0,0,0,0,0,0,0,0,0,0,0,0,0,0,0,0,0,0,0,0,0,0,0,0,0,0,0,0,0,0,0,0,0,0,0,0,0,0,0,0,0,0,-0.6015,-0.6019,0,-0.6387,-0.6392,-0.6396,-0.6613,-0.6614,-0.6614,-0.6615,-0.6994,-0.7003,-0.7013,0,0,0,0,0,0,0,0,0,0,0,0,0,-0.5486,-0.5495,-0.6014,-0.6019,-0.6024,-0.6387,-0.6392,-0.6397,-0.6613,-0.6614,-0.6615,-0.6616,-0.6991,-0.7002,-0.7013,0,0,0,0,0,0,0,0,0,0,0,0,0,-0.5772,-0.5497,-0.6013,-0.6175,-0.6193,-0.6386,-0.6392,-0.6398,-0.6612,-0.6614,-0.6615,-0.6616,-0.6988,-0.7001,-0.7015,-0.7075,0,0,-0.7058,-0.7064,0,0,0,0,0,0,0,0,-0.5756,-0.5792,-0.6147,-0.6164,-0.6185,-0.6455,-0.6345,-0.6625,-0.6612,-0.6453,-0.6615,-0.6617,-0.6814,-0.6842,-0.6909,-0.7093,-0.7109,-0.7059,-0.7067,-0.7073,-0.7077,0,0,0,0,0,0,0,-0.5736,-0.5777,-0.6162,-0.6151,-0.6175,-0.6228,-0.627,-0.6399,-0.6621,-0.6467,-0.6484,-0.6525,-0.6824,-0.6895,-0.6919,-0.7114,-0.7058,-0.7071,-0.7079,-0.7085,-0.7366,-0.7366,0,0,0,0,0,0,-0.5691,-0.5759,-0.615,-0.6173,-0.5969,-0.6236,-0.6284,-0.6367,-0.6621,-0.6661,-0.6524,-0.6534,-0.6871,-0.6903,-0.6934,-0.7022,-0.7073,-0.7086,-0.7094,-0.7367,-0.7366,-0.7365,0,0,0,0,0,0,-0.5678,-0.5724,-0.6135,-0.5971,-0.6027,-0.6244,-0.6336,-0.6374,-0.6445,-0.6663,-0.6704,-0.6555,-0.6873,-0.6914,-0.7039,-0.7038,-0.7092,-0.7105,-0.7368,-0.7367,-0.7366,-0.7197,0,0,0,0,0,0,-0.5662,-0.5718,-0.5744,-0.597,-0.6035,-0.6234,-0.6336,-0.638,-0.6468,-0.6485,-0.6704,-0.6741,-0.6877,-0.7016,-0.7052,-0.7058,-0.7116,-0.7369,-0.7368,-0.7366,-0.7204,-0.719,-0.7179,0,0,0,0,0,-0.5643,-0.5681,-0.5744,-0.579,-0.6072,-0.6234,-0.6271,-0.6428,-0.6467,-0.6495,-0.6635,-0.6734,-0.7031,-0.7027,-0.707,-0.7079,-0.737,-0.7368,-0.7366,-0.7209,-0.7193,-0.7179,0,0,0,0,0,0,-0.5449,-0.5713,-0.5786,-0.5899,-0.6042,-0.627,-0.631,-0.6405,-0.654,-0.655,-0.6737,-0.6784,-0.6891,-0.6998,-0.6988,-0.7151,-0.7212,-0.7218,-0.7078,-0.7064,-0.7052,-0.7025,-0.7127,0,0,0,0,0,-0.5418,-0.5528,-0.5754,-0.5831,-0.5899,-0.6091,-0.6167,-0.6275,-0.6431,-0.6493,-0.6643,-0.6789,-0.6916,-0.6996,-0.7124,-0.7219,-0.727,-0.7247,-0.7234,-0.7222,-0.7226,-0.7286,-0.7278,-0.7359,-0.7359,-0.7359,0,0,-0.5358,-0.5517,-0.5575,-0.5796,-0.592,-0.6029,-0.6141,-0.6252,-0.6334,-0.651,-0.6637,-0.6751,-0.6927,-0.7037,-0.7093,-0.7129,-0.7215,-0.722,-0.7209,-0.722,-0.7283,-0.7275,-0.7268,-0.7357,-0.7358,-0.7358,0,0,-0.5305,-0.5435,-0.5515,-0.5636,-0.5822,-0.595,-0.5967,-0.6182,-0.6265,-0.6395,-0.6529,-0.6629,-0.6843,-0.6964,-0.7052,-0.7042,-0.7138,-0.7078,-0.7014,-0.7069,-0.7063,-0.7058,-0.7056,-0.7053,-0.7081,-0.708,-0.708,0,-0.5207,-0.5378,-0.5543,-0.5647,-0.574,-0.5903,-0.5985,-0.6094,-0.6311,-0.6372,-0.6409,-0.6682,-0.6812,-0.6953,-0.695,-0.7016,-0.7043,-0.7056,-0.705,-0.7047,-0.7045,-0.7045,-0.7044,-0.7072,-0.7073,-0.7074,-0.7075,0,-0.5248,-0.5364,-0.5405,-0.5613,-0.571,-0.5801,-0.598,-0.6058,-0.6157,-0.6279,-0.641,-0.6571,-0.6736,-0.6776,-0.6873,-0.6931,-0.6948,-0.7014,-0.708,-0.7026,-0.703,-0.7031,-0.706,-0.7063,-0.7066,-0.7068,0,0,-0.5086,-0.5382,-0.5395,-0.5491,-0.5707,-0.58,-0.5897,-0.6059,-0.6123,-0.6266,-0.6354,-0.6531,-0.6594,-0.6695,-0.6806,-0.6854,-0.6837,-0.6916,-0.6923,-0.6898,-0.6912,-0.6862,-0.686,-0.6901,-0.6902,-0.6902,-0.6898,0,-0.5066,-0.5252,-0.5402,-0.5532,-0.5641,-0.5796,-0.5882,-0.6023,-0.6139,-0.6248,-0.6376,-0.6499,-0.6573,-0.6635,-0.6689,-0.6827,-0.6843,-0.6829,-0.6985,-0.6989,-0.6939,-0.6861,-0.681,-0.6798,-0.69,-0.6901,-0.6901,0,-0.5069,-0.5207,-0.5346,-0.5552,-0.5603,-0.5677,-0.5837,-0.5939,-0.6102,-0.6183,-0.6294,-0.641,-0.652,-0.6572,-0.6726,-0.6714,-0.6786,-0.6863,-0.6866,-0.6889,-0.6943,-0.6884,-0.6798,-0.6797,-0.6904,-0.6904,-0.6904,0,-0.4938,-0.5159,-0.5272,-0.5349,-0.559,-0.5639,-0.5741,-0.5905,-0.5992,-0.6131,-0.619,-0.6339,-0.6421,-0.6533,-0.6686,-0.6709,-0.6825,-0.6889,-0.6896,-0.6892,-0.6916,-0.6913,-0.6842,-0.6957,-0.6957,-0.6957,-0.6957,0,-0.4902,-0.4982,-0.5217,-0.5286,-0.538,-0.5551,-0.5639,-0.5755,-0.5899,-0.5993,-0.6135,-0.622,-0.6416,-0.6525,-0.6644,-0.6755,-0.679,-0.6859,-0.689,-0.6848,-0.684,-0.69,-0.6906,-0.6957,-0.6957,-0.6957,-0.6957,0,-0.4774,-0.4934,-0.5068,-0.5285,-0.5341,-0.54,-0.5586,-0.5659,-0.5782,-0.59,-0.5937,-0.613,-0.6266,-0.6428,-0.6615,-0.6696,-0.6796,-0.6841,-0.6741,-0.676,-0.6759,-0.6758,-0.6728,-0.6733,-0.6839,-0.6838,-0.6836,0,-0.4742,-0.4807,-0.503,-0.5104,-0.5202,-0.5319,-0.5409,-0.5578,-0.5666,-0.5855,-0.5905,-0.6051,-0.6177,-0.6385,-0.6543,-0.6687,-0.6738,-0.6718,-0.6761,-0.6717,-0.6741,-0.6736,-0.6745,-0.6707,-0.6705,-0.6703,-0.6702,0,-0.4668,-0.4743,-0.4868,-0.5019,-0.5122,-0.5249,-0.5383,-0.5435,-0.5631,-0.5722,-0.5862,-0.596,-0.6151,-0.6295,-0.6458,-0.6564,-0.6666,-0.6686,-0.6696,-0.6655,-0.6595,-0.663,-0.6713,-0.6687,-0.6689,-0.669,-0.669,-0.6691,-0.4589,-0.4655,-0.4822,-0.4955,-0.5073,-0.5194,-0.5273,-0.5406,-0.5526,-0.5696,-0.5788,-0.5926,-0.6086,-0.6317,-0.6418,-0.6529,-0.6565,-0.6578,-0.6582,-0.6584,-0.6572,-0.6575,-0.6558,-0.6559,-0.656,-0.656,-0.6561,0,-0.4525,-0.4639,-0.476,-0.4942,-0.5047,-0.5132,-0.5284,-0.5366,-0.5486,-0.5627,-0.5748,-0.5908,-0.6048,-0.6215,-0.6365,-0.6421,-0.6472,-0.6455,-0.6454,-0.6477,-0.653,-0.6508,-0.6412,-0.6412,-0.6412,-0.6412,-0.6412,-0.6412,-0.4504,-0.4619,-0.4714,-0.4889,-0.5004,-0.5141,-0.522,-0.5332,-0.5446,-0.5619,-0.5736,-0.5843,-0.5995,-0.6158,-0.6289,-0.6335,-0.6385,-0.6354,-0.6413,-0.646,-0.6473,-0.6486,-0.6466,-0.6363,-0.6363,-0.6353,-0.6353,-0.6352]}]]